Dewar Lakes, Nunavut

12:03 PM EST on December 18, 2017 (GMT -0500)
Dewar Lakes

Weather History for CWUW - June, 2013

Change the Weather History Date:

Saturday, June 22, 2013

  Actual Average Record
Temperature  
Mean Temperature 30 °F -  
Max Temperature 35 °F 45 °F 48 °F (1997)
Min Temperature 26 °F 33 °F 24 °F (2001)
Degree Days  
Heating Degree Days 34    
Moisture  
Dew Point -    
Average Humidity    
Maximum Humidity    
Minimum Humidity    
Precipitation  
Precipitation 0.00 in 0.05 in - ()
Sea Level Pressure  
Sea Level Pressure 29.40 in    
Wind  
Wind Speed 15 mph ()    
Max Wind Speed 25 mph    
Max Gust Speed 24 mph    
Visibility 7.8 miles    
Events Rain    
Averages and records for this station are not official NWS values.
T = Trace of Precipitation, MM = Missing Value Source: Averaged Metar Reports

Daily Weather History Graph

Daily Weather History Graph

Search for Another Location

Airport or City:

Trip Planner

Search our weather history database for the weather conditions in past years. The results will help you decide how hot, cold, wet, or windy it might be!

Date:

Astronomy

Dec. 31, 1969 Rise Set
Actual Time Sun does not rise Sun does not rise
Civil Twilight Sun does not rise Sun does not rise
Nautical Twilight Sun does not rise Sun does not rise
Astronomical Twilight Sun does not rise Sun does not rise
Moon 11:06 PM EDT (6/22) 12:49 AM EDT (6/22)
Length of Visible Light 24h 00m
Length of Day
24h 00m
Waxing Gibbous, 99% of the Moon is Illuminated
Jun 22
Waxing Gibbous
Jun 23
Full
Jun 30
Last Quarter
Jul 8
New
Jul 15
First Quarter

Hourly Weather History & Observations

Time (EDT) Temp. Windchill Dew Point Humidity Pressure Visibility Wind Dir Wind Speed Gust Speed Precip Events Conditions
12:00 AM 28.4 °F 14.4 °F - N/A% 29.18 in 9.0 mi East 23.0 mph - N/A   Partly Cloudy
1:00 AM 28.4 °F 15.8 °F - N/A% 29.19 in 9.0 mi East 18.4 mph - N/A   Scattered Clouds
1:11 AM 28.4 °F 15.4 °F - N/A% 29.08 in 9.0 mi East 19.6 mph - N/A   Mostly Cloudy
1:37 AM 26.6 °F 14.3 °F - N/A% 29.09 in 9.0 mi East 16.1 mph - N/A   Mostly Cloudy
1:38 AM 28.4 °F 15.8 °F - N/A% 29.09 in 9.0 mi East 18.4 mph - N/A   Mostly Cloudy
2:00 AM 28 °F - - % 29.21 in 9 mi East 19.6 mph - -  
2:00 AM 28.4 °F 15.4 °F - N/A% 29.21 in 9.0 mi East 19.6 mph - N/A   Partly Cloudy
3:00 AM 28.4 °F 15.8 °F - N/A% 29.26 in 9.0 mi East 18.4 mph - N/A   Partly Cloudy
3:30 AM 26.6 °F 14.3 °F - N/A% 29.15 in 9.0 mi East 16.1 mph - N/A   Overcast
4:00 AM 28.4 °F 17.5 °F - N/A% 29.27 in 9.0 mi East 13.8 mph - N/A   Mostly Cloudy
4:16 AM 28.4 °F 16.6 °F - N/A% 29.16 in 9.0 mi East 16.1 mph 21.9 mph N/A   Scattered Clouds
4:52 AM 28.4 °F 16.2 °F - N/A% 29.18 in 9.0 mi ESE 17.3 mph - N/A   Mostly Cloudy
5:00 AM 28 °F - - % 29.30 in 9 mi East 17.3 mph - -   Overcast
5:00 AM 28.4 °F 16.6 °F - N/A% 29.30 in 9.0 mi East 16.1 mph - N/A   Overcast
5:25 AM 28.4 °F 15.4 °F - N/A% 29.20 in 9.0 mi ESE 19.6 mph - N/A   Overcast
5:38 AM 28.4 °F 17.0 °F - N/A% 29.20 in 9.0 mi ESE 15.0 mph - N/A   Overcast
5:47 AM 28.4 °F 14.7 °F - N/A% 29.21 in 9.0 mi ESE 21.9 mph - N/A   Overcast
6:00 AM 28.4 °F 16.6 °F - N/A% 29.34 in 7.0 mi East 16.1 mph 24.2 mph N/A   Mostly Cloudy
6:02 AM 28.4 °F - - N/A% 29.22 in 8.0 mi North - - N/A   Mostly Cloudy
6:47 AM 28.4 °F 14.1 °F - N/A% 29.23 in 9.0 mi ESE 24.2 mph - N/A   Scattered Clouds
7:00 AM 28.4 °F 13.8 °F - N/A% 29.35 in 9.0 mi ESE 25.3 mph - N/A   Scattered Clouds
7:03 AM 28.4 °F 13.8 °F - N/A% 29.24 in 9.0 mi ESE 25.3 mph - N/A   Mostly Cloudy
8:00 AM 29 °F - - % 29.38 in 9 mi ESE 20.7 mph - -  
8:00 AM 30.2 °F 17.8 °F - N/A% 29.38 in 9.0 mi ESE 19.6 mph - N/A   Mostly Cloudy
8:07 AM 30.2 °F 16.8 °F - N/A% 29.27 in 9.0 mi ESE 23.0 mph - N/A   Scattered Clouds
8:29 AM 30.2 °F 17.1 °F - N/A% 29.29 in 9.0 mi ESE 21.9 mph - N/A   Mostly Cloudy
9:00 AM 30.2 °F 17.8 °F - N/A% 29.41 in 9.0 mi East 19.6 mph - N/A   Overcast
9:29 AM 30.2 °F 18.1 °F - N/A% 29.31 in 9.0 mi East 18.4 mph - N/A   Scattered Clouds
10:00 AM 30.2 °F 17.8 °F - N/A% 29.44 in 9.0 mi East 19.6 mph - N/A   Mostly Cloudy
10:46 AM 30.2 °F 18.9 °F - N/A% 29.35 in 9.0 mi East 16.1 mph - N/A   Overcast
11:00 AM 31 °F - - % 29.48 in 9 mi East 17.3 mph - -  
11:00 AM 32.0 °F 21.2 °F - N/A% 29.48 in 9.0 mi East 16.1 mph 23.0 mph N/A   Mostly Cloudy
11:22 AM 32.0 °F 21.6 °F - N/A% 29.36 in 9.0 mi East 15.0 mph - N/A   Scattered Clouds
11:32 AM 32.0 °F 23.0 °F - N/A% 29.37 in 9.0 mi ESE 11.5 mph - N/A   Mostly Cloudy
11:38 AM 32.0 °F 22.5 °F - N/A% 29.37 in 9.0 mi SE 12.7 mph - N/A   Overcast
11:39 AM 32.0 °F 22.5 °F - N/A% 29.37 in 9.0 mi SE 12.7 mph - N/A   Overcast
11:51 AM 32.0 °F 21.6 °F - N/A% 29.37 in 9.0 mi ESE 15.0 mph 20.7 mph N/A   Overcast
12:00 PM 32.0 °F 22.1 °F - N/A% 29.49 in 9.0 mi ESE 13.8 mph 19.6 mph N/A   Mostly Cloudy
12:06 PM 32.0 °F 22.5 °F - N/A% 29.38 in 9.0 mi SE 12.7 mph 19.6 mph N/A   Mostly Cloudy
1:00 PM 33.8 °F 27.7 °F - N/A% 29.52 in 9.0 mi East 6.9 mph - N/A   Partly Cloudy
1:18 PM 33.8 °F 25.8 °F - N/A% 29.41 in 9.0 mi East 10.4 mph - N/A   Mostly Cloudy
1:35 PM 33.8 °F 25.3 °F - N/A% 29.42 in 9.0 mi East 11.5 mph - N/A   Scattered Clouds
1:41 PM 33.8 °F 25.3 °F - N/A% 29.42 in 2.6 mi East 11.5 mph 17.3 mph N/A   Mostly Cloudy
1:42 PM 33.8 °F 23.9 °F - N/A% 29.42 in 2.0 mi East 15.0 mph - N/A   Mostly Cloudy
1:43 PM 32.0 °F 20.5 °F - N/A% 29.42 in 1.4 mi ESE 18.4 mph - N/A   Overcast
1:44 PM 32.0 °F 20.8 °F - N/A% 29.42 in 1.1 mi ESE 17.3 mph - N/A   Overcast
1:45 PM 32.0 °F 21.2 °F - N/A% 29.42 in 1.0 mi ESE 16.1 mph - N/A   Overcast
1:46 PM 32.0 °F 21.6 °F - N/A% 29.42 in 1.0 mi ESE 15.0 mph - N/A   Overcast
1:48 PM 32.0 °F 23.0 °F - N/A% 29.43 in 0.6 mi ESE 11.5 mph 18.4 mph N/A   Overcast
1:50 PM 32.0 °F 24.2 °F - N/A% 29.43 in 0.6 mi ESE 9.2 mph 18.4 mph N/A   Overcast
1:51 PM 32.0 °F 24.2 °F - N/A% 29.43 in 0.6 mi ESE 9.2 mph 18.4 mph N/A   Overcast
1:54 PM 32.0 °F 23.6 °F - N/A% 29.43 in 1.1 mi ESE 10.4 mph - N/A   Overcast
1:58 PM 32.0 °F 24.2 °F - N/A% 29.44 in 3.5 mi ESE 9.2 mph - N/A   Overcast
2:00 PM 32 °F - - % 29.55 in 9 mi ESE 9.2 mph - -  
2:00 PM 32.0 °F 24.8 °F - N/A% 29.55 in 9.0 mi ESE 8.1 mph - N/A   Mostly Cloudy
2:04 PM 32.0 °F 26.4 °F - N/A% 29.43 in 9.0 mi ESE 5.8 mph - N/A   Mostly Cloudy
3:00 PM 33.8 °F 26.4 °F - N/A% 29.57 in 9.0 mi East 9.2 mph - N/A   Mostly Cloudy
3:06 PM 33.8 °F 26.4 °F - N/A% 29.46 in 9.0 mi East 9.2 mph - N/A   Mostly Cloudy
3:13 PM 35.6 °F 28.6 °F - N/A% 29.47 in 9.0 mi East 9.2 mph - N/A   Scattered Clouds
3:21 PM 33.8 °F 26.4 °F - N/A% 29.46 in 9.0 mi East 9.2 mph - N/A   Mostly Cloudy
3:43 PM 35.6 °F 30.7 °F - N/A% 29.47 in 9.0 mi East 5.8 mph - N/A   Overcast
4:00 PM 35.6 °F 30.7 °F - N/A% 29.59 in 9.0 mi East 5.8 mph - N/A   Mostly Cloudy
5:00 PM 35 °F - - % 29.62 in 9 mi ENE 8.1 mph - -   Overcast
5:00 PM 35.6 °F 29.2 °F - N/A% 29.62 in 9.0 mi ENE 8.1 mph - N/A   Overcast
5:14 PM 35.6 °F 28.6 °F - N/A% 29.51 in 9.0 mi East 9.2 mph - N/A Rain Light Rain
5:42 PM 35.6 °F 29.9 °F - N/A% 29.51 in 9.0 mi East 6.9 mph - N/A   Overcast
6:00 PM 35.6 °F 28.6 °F - N/A% 29.63 in 9.0 mi East 9.2 mph - N/A   Overcast
7:00 PM 35.6 °F 28.0 °F - N/A% 29.64 in 9.0 mi ESE 10.4 mph - N/A   Overcast
8:00 PM 35 °F - - % 29.66 in 9 mi ESE 6.9 mph - -  
8:00 PM 35.6 °F 29.2 °F - N/A% 29.66 in 9.0 mi ESE 8.1 mph - N/A   Mostly Cloudy
9:00 PM 35.6 °F 29.2 °F - N/A% 29.68 in 9.0 mi SE 8.1 mph - N/A   Overcast
10:00 PM 33.8 °F 27.0 °F - N/A% 29.69 in 9.0 mi SE 8.1 mph - N/A   Overcast
11:00 PM 33 °F - - % 29.69 in 9 mi SE 8.1 mph - -   Overcast
11:00 PM 33.8 °F 26.4 °F - N/A% 29.69 in 9.0 mi SE 9.2 mph - N/A   Overcast
11:56 PM 32.0 °F 23.6 °F - N/A% 29.59 in 9.0 mi SE 10.4 mph - N/A   Mostly Cloudy